Location: Unspecified
(42.9300°N, 71.1866°W)
Time: 19:26:58
(UTC-04:00)

GENESIS II - Visible Passes

Search period start: 31 August 2016 00:00
Search period end: 10 September 2016 00:00
Orbit: 484 x 555 km, 64.5° (Epoch: 31 August)

Date Brightness Start Highest point End Pass type
(mag) Time Alt. Az. Time Alt. Az. Time Alt. Az.
01 Sep 7.2 22:27:45 10° NNE 22:27:58 10° NNE 22:27:58 10° NNE visible
02 Sep 7.1 22:13:02 10° NNE 22:13:34 11° NNE 22:13:34 11° NNE visible
03 Sep 7.0 21:58:21 10° NNE 21:59:13 11° NNE 21:59:13 11° NNE visible
03 Sep 7.7 23:34:15 10° NNW 23:34:15 10° NNW 23:34:15 10° NNW visible
04 Sep 6.9 21:43:41 10° NNE 21:44:53 12° NNE 21:44:53 12° NNE visible
04 Sep 7.6 23:19:42 10° NNW 23:19:56 11° NNW 23:19:56 11° NNW visible
05 Sep 6.8 21:29:02 10° N 21:30:35 12° NNE 21:30:35 12° NNE visible
05 Sep 7.4 23:05:10 10° NNW 23:05:38 13° NNW 23:05:38 13° NNW visible
06 Sep 6.7 21:14:23 10° N 21:16:16 13° NE 21:16:18 13° NE visible
06 Sep 7.3 22:50:37 10° NNW 22:51:21 15° NNW 22:51:21 15° NNW visible
07 Sep 6.6 20:59:44 10° N 21:01:45 13° NE 21:02:04 13° NE visible
07 Sep 7.1 22:36:04 10° NNW 22:37:07 17° NNW 22:37:07 17° NNW visible
08 Sep 6.5 20:45:06 10° N 20:47:14 14° NE 20:47:52 13° NE visible
08 Sep 6.8 22:21:32 10° NW 22:22:55 20° NNW 22:22:55 20° NNW visible
09 Sep 6.4 20:30:29 10° N 20:32:43 14° NE 20:33:42 13° NE visible
09 Sep 6.5 22:06:59 10° NW 22:08:45 25° NW 22:08:45 25° NW visible
